SL-14 DEB

Satellite information

Favourite Embed

Satellite Type and Status

DEBRISIN ORBIT

Key statistics

Satellite SL-14 DEB at a glance.

Uptime

12378

Days in orbit

Revolutions

≈ 13.2

Per day

Orbit

LEO

Low Earth Orbit

Inclination

82.6

Latest

Satellite identification and parameters

Extended collection of information and parameters for SL-14 DEB.

Object identification

Identified? True

Debris? True

Object name: SL-14 DEB

International designator: 1991-056BQ

Object number (NORAD): 45326

Object ID (CCSDS): 45326

Country: COMMONWEALTH OF INDEPENDENT STATES (CIS)

Current information (Y/N): Y

RCS size: SMALL

Orbital parameters

Period: 108.707 minutes

Inclination: 82.5916 deg

SMA: 7545.106 km

Apoapsis: 1192.717 km

Periapsis: 1141.225 km

RAAN: 17.0769 deg

Eccentricy: 0.0034123

Argument of periapsis: 186.0314 deg

Mean anomaly: 174.0407 deg

Mean motion: 13.24660905 rev/day

Mean motion (dot): 0.00000524 rev/day2

B* drag term: 0.0011836 1/REarth

Two-line elements (TLE)

Creation date: July 4, 2025, 6:39 p.m.

Reference frame: TEME

Reference center: EARTH

Epoch: July 4, 2025, 11:52 a.m. UTC

TLE line 0: 0 SL-14 DEB

TLE line 1: 1 45326U 91056BQ 25185.49494585 .00000524 00000-0 11836-2 0 9992

TLE line 2: 2 45326 82.5916 17.0769 0034123 186.0314 174.0407 13.24660905260152

Live tracking on map

Real-time ground track for satellite SL-14 DEB.

In-orbit conjunctions

A list of the most updated potential collisions computed for object SL-14 DEB.

Target Orbit TCA Probability of collision Miss distance Type
METEOR 3-5 LEO 2025-05-20 22:47:38 0.000122081 782.0 (m) PAYLOAD

Associated space launch

Third generation meteorological satellite

SL-14 DEB was lifted into orbit during the mission ‘Tsiklon-3 | Meteor-3 5’, on board a Tsiklon-3 space rocket.

The launch took place on Aug. 15, 1991, 9:15 a.m. from 32/2.

For more information about the launch, click the button.

Launch to space Tsiklon-3 | Meteor-3 5
Tsiklon-3 | Meteor-3 5

Agency: N/A

Status: Launch Successful

Launch date: Aug. 15, 1991, 9:15 a.m. UTC

Rocket: Tsiklon-3

Launch pad: 32/2

Location: Plesetsk Cosmodrome, Russian Federation

...

Latest news about this satellite

There are no fresh news available about this satellite. Check back as we update our databases every day.


Newsletter sign-up

Weekly statistics, charts and insights to help you stay on top of the space industry.